{"data":{"norad_id":45225,"epoch":"2026-05-25T00:22:55.207200Z","epoch_age_seconds":77143,"freshness":"FRESH","line1":"1 45225U 20012AZ  26145.01591675  .00038965  00000+0  11806-2 0  9993","line2":"2 45225  53.1582   3.1385 0002133 167.4587 192.6469 15.33798147347178","mean_motion":15.33798147,"eccentricity":0.0002133,"inclination_deg":53.1582,"raan_deg":3.1385,"arg_perigee_deg":167.4587,"mean_anomaly_deg":192.6469,"bstar":0.0011806,"rev_number":34717,"period_min":93.884583366888,"perigee_km":463.03312616567,"apogee_km":465.95219197823,"semimajor_km":6842.6296590719,"source":"CELESTRAK","updated_at":"2026-05-25T13:38:16.384700Z"}}